TimeCST,TemperatureF,Dew PointF,Humidity,Sea Level PressureIn,VisibilityMPH,Wind Direction,Wind SpeedMPH,Gust SpeedMPH,PrecipitationIn,Events,Conditions,WindDirDegrees,DateUTC
12:54 AM,28.0,19.9,72,29.52,10.0,NNW,3.5,-,N/A,,Clear,340,2013-12-03 06:54:00
1:54 AM,30.0,24.1,79,29.52,10.0,Calm,Calm,-,N/A,,Clear,0,2013-12-03 07:54:00
2:54 AM,33.1,27.0,78,29.52,10.0,North,6.9,-,N/A,,Clear,350,2013-12-03 08:54:00
3:54 AM,35.1,28.0,76,29.52,10.0,North,6.9,-,N/A,,Clear,360,2013-12-03 09:54:00
4:54 AM,34.0,28.0,79,29.52,10.0,North,10.4,-,N/A,,Partly Cloudy,360,2013-12-03 10:54:00
5:54 AM,35.1,28.0,76,29.52,10.0,North,15.0,-,N/A,,Clear,360,2013-12-03 11:54:00
6:54 AM,35.1,28.9,78,29.55,9.0,North,9.2,-,N/A,,Scattered Clouds,360,2013-12-03 12:54:00
7:54 AM,36.0,28.9,76,29.56,9.0,North,10.4,-,N/A,,Scattered Clouds,360,2013-12-03 13:54:00
8:54 AM,36.0,28.9,76,29.61,5.0,North,16.1,-,N/A,,Haze,350,2013-12-03 14:54:00
9:54 AM,37.9,30.0,73,29.61,5.0,North,19.6,-,N/A,,Haze,360,2013-12-03 15:54:00
10:49 AM,37.4,30.2,75,29.62,4.0,North,19.6,-,N/A,,Haze,350,2013-12-03 16:49:00
10:54 AM,37.9,30.9,76,29.63,4.0,North,21.9,-,N/A,,Haze,360,2013-12-03 16:54:00
11:54 AM,39.0,30.9,73,29.61,4.0,North,15.0,-,N/A,,Haze,360,2013-12-03 17:54:00
12:54 PM,42.1,32.0,67,29.60,5.0,North,16.1,-,N/A,,Haze,10,2013-12-03 18:54:00
1:02 PM,42.1,32.0,67,29.58,5.0,NNE,15.0,-,N/A,,Haze,30,2013-12-03 19:02:00
1:54 PM,45.0,32.0,60,29.59,7.0,North,11.5,-,N/A,,Clear,10,2013-12-03 19:54:00
2:54 PM,46.0,33.1,61,29.60,8.0,North,15.0,-,N/A,,Clear,350,2013-12-03 20:54:00
3:54 PM,43.0,32.0,65,29.64,9.0,North,18.4,-,N/A,,Scattered Clouds,350,2013-12-03 21:54:00
4:03 PM,43.0,32.0,65,29.63,10.0,North,17.3,-,N/A,,Mostly Cloudy,350,2013-12-03 22:03:00
4:26 PM,41.0,32.0,70,29.64,10.0,North,16.1,-,N/A,,Mostly Cloudy,350,2013-12-03 22:26:00
4:54 PM,39.9,32.0,73,29.64,10.0,North,20.7,-,N/A,,Partly Cloudy,360,2013-12-03 22:54:00
5:23 PM,39.0,30.9,73,29.64,10.0,North,17.3,-,N/A,,Mostly Cloudy,350,2013-12-03 23:23:00
5:54 PM,39.0,30.9,73,29.68,10.0,North,17.3,-,N/A,,Overcast,350,2013-12-03 23:54:00
6:13 PM,37.9,30.9,76,29.67,9.0,North,19.6,-,N/A,,Overcast,350,2013-12-04 00:13:00
6:54 PM,37.9,30.9,76,29.70,8.0,North,23.0,26.5,N/A,,Overcast,350,2013-12-04 00:54:00
7:54 PM,36.0,30.0,79,29.68,7.0,North,17.3,26.5,N/A,,Overcast,360,2013-12-04 01:54:00
8:54 PM,36.0,30.0,79,29.69,7.0,North,16.1,-,N/A,,Overcast,10,2013-12-04 02:54:00
9:54 PM,36.0,30.0,79,29.71,8.0,North,9.2,-,N/A,,Overcast,360,2013-12-04 03:54:00
10:54 PM,35.1,30.0,82,29.71,9.0,NNW,9.2,-,N/A,,Overcast,340,2013-12-04 04:54:00
11:54 PM,35.1,30.0,82,29.68,9.0,North,12.7,-,N/A,,Overcast,350,2013-12-04 05:54:00